Time,TemperatureF,DewpointF,PressureIn,WindDirection,WindDirectionDegrees,WindSpeedMPH,WindSpeedGustMPH,Humidity,HourlyPrecipIn,Conditions,Clouds,dailyrainin,SoftwareType,DateUTC
2013-01-25 00:03:00,30.2,9.9,30.10,SW,233,10.5,11.0,42,0.00,,CLR,0.00,VWS V14.01,2013-01-25 07:03:00,
2013-01-25 00:08:00,29.5,9.2,30.10,SW,234,8.3,11.0,42,0.00,,CLR,0.00,VWS V14.01,2013-01-25 07:08:00,
2013-01-25 00:13:00,29.7,9.4,30.10,WSW,241,8.3,11.0,42,0.00,,CLR,0.00,VWS V14.01,2013-01-25 07:13:00,
2013-01-25 00:18:00,28.9,8.7,30.10,WSW,248,11.0,11.0,42,0.00,,CLR,0.00,VWS V14.01,2013-01-25 07:18:00,
2013-01-25 00:23:00,29.5,9.2,30.10,SSW,209,8.1,11.0,42,0.00,,CLR,0.00,VWS V14.01,2013-01-25 07:23:00,
2013-01-25 00:28:00,28.6,7.9,30.10,SSW,212,7.2,11.0,41,0.00,,CLR,0.00,VWS V14.01,2013-01-25 07:28:00,
2013-01-25 00:33:00,28.2,8.1,30.10,WSW,241,6.3,9.6,42,0.00,,CLR,0.00,VWS V14.01,2013-01-25 07:33:00,
2013-01-25 00:38:00,27.1,7.1,30.10,SW,216,5.8,9.6,42,0.00,,CLR,0.00,VWS V14.01,2013-01-25 07:38:00,
2013-01-25 00:43:00,26.8,7.3,30.10,SSW,212,8.1,9.6,43,0.00,,CLR,0.00,VWS V14.01,2013-01-25 07:43:00,
2013-01-25 00:48:00,26.6,7.1,30.10,SSW,208,8.3,10.5,43,0.00,,CLR,0.00,VWS V14.01,2013-01-25 07:48:00,
2013-01-25 00:53:00,28.0,7.9,30.10,SW,235,8.7,10.5,42,0.00,,CLR,0.00,VWS V14.01,2013-01-25 07:53:00,
2013-01-25 00:58:00,29.1,8.9,30.10,SW,221,8.7,11.4,42,0.00,,CLR,0.00,VWS V14.01,2013-01-25 07:58:00,
2013-01-25 01:03:00,28.9,8.2,30.10,SW,216,8.3,8.7,41,0.00,,CLR,0.00,VWS V14.01,2013-01-25 08:03:00,
2013-01-25 01:08:00,29.1,8.4,30.10,SSW,195,7.6,10.5,41,0.00,,CLR,0.00,VWS V14.01,2013-01-25 08:08:00,
2013-01-25 01:13:00,28.4,8.2,30.10,SW,228,8.3,10.5,42,0.00,,CLR,0.00,VWS V14.01,2013-01-25 08:13:00,
2013-01-25 01:18:00,28.0,7.9,30.10,SW,216,5.8,10.5,42,0.00,,CLR,0.00,VWS V14.01,2013-01-25 08:18:00,
2013-01-25 01:23:00,28.2,8.1,30.10,SW,219,5.8,10.5,42,0.00,,CLR,0.00,VWS V14.01,2013-01-25 08:23:00,
2013-01-25 01:28:00,27.9,7.8,30.10,SSW,205,8.1,10.5,42,0.00,,CLR,0.00,VWS V14.01,2013-01-25 08:28:00,
2013-01-25 01:33:00,28.2,8.1,30.10,WSW,243,8.7,10.5,42,0.00,,CLR,0.00,VWS V14.01,2013-01-25 08:33:00,
2013-01-25 01:38:00,27.9,7.8,30.10,SW,231,5.4,10.5,42,0.00,,CLR,0.00,VWS V14.01,2013-01-25 08:38:00,
2013-01-25 01:43:00,30.0,9.2,30.10,SSE,167,5.8,10.5,41,0.00,,CLR,0.00,VWS V14.01,2013-01-25 08:43:00,
2013-01-25 01:48:00,29.1,8.4,30.10,South,187,7.6,10.5,41,0.00,,CLR,0.00,VWS V14.01,2013-01-25 08:48:00,
2013-01-25 01:53:00,28.0,7.9,30.07,SW,227,7.6,10.5,42,0.00,,CLR,0.00,VWS V14.01,2013-01-25 08:53:00,
2013-01-25 01:58:00,28.8,8.0,30.07,SSW,206,7.6,10.5,41,0.00,,CLR,0.00,VWS V14.01,2013-01-25 08:58:00,
2013-01-25 02:03:00,27.9,7.8,30.07,SSW,207,8.7,8.7,42,0.00,,CLR,0.00,VWS V14.01,2013-01-25 09:03:00,
2013-01-25 02:08:00,27.7,7.6,30.07,WSW,242,8.7,8.7,42,0.00,,CLR,0.00,VWS V14.01,2013-01-25 09:08:00,
2013-01-25 02:13:00,28.2,8.1,30.07,SSW,212,8.7,12.3,42,0.00,,CLR,0.00,VWS V14.01,2013-01-25 09:13:00,
2013-01-25 02:18:00,28.9,8.2,30.07,SW,229,9.6,12.3,41,0.00,,CLR,0.00,VWS V14.01,2013-01-25 09:18:00,
2013-01-25 02:23:00,28.9,8.2,30.07,SSW,198,6.3,12.3,41,0.00,,CLR,0.00,VWS V14.01,2013-01-25 09:23:00,
2013-01-25 02:28:00,28.9,8.2,30.07,SSW,195,7.6,12.3,41,0.00,,CLR,0.00,VWS V14.01,2013-01-25 09:28:00,
2013-01-25 02:33:00,28.0,7.9,30.07,SW,228,8.7,11.0,42,0.00,,CLR,0.00,VWS V14.01,2013-01-25 09:33:00,
2013-01-25 02:38:00,27.3,7.3,30.07,WSW,240,8.3,11.0,42,0.00,,CLR,0.00,VWS V14.01,2013-01-25 09:38:00,
2013-01-25 02:43:00,26.6,7.1,30.07,WSW,237,8.1,11.0,43,0.00,,CLR,0.00,VWS V14.01,2013-01-25 09:43:00,
2013-01-25 02:48:00,28.0,7.9,30.07,SW,222,10.1,11.0,42,0.00,,CLR,0.00,VWS V14.01,2013-01-25 09:48:00,
2013-01-25 02:53:00,28.0,7.9,30.07,WSW,245,12.3,12.3,42,0.00,,CLR,0.00,VWS V14.01,2013-01-25 09:53:00,
2013-01-25 02:58:00,27.5,7.4,30.07,WSW,251,6.3,12.3,42,0.00,,CLR,0.00,VWS V14.01,2013-01-25 09:58:00,
2013-01-25 03:03:00,27.3,7.3,30.07,WSW,244,5.4,8.7,42,0.00,,CLR,0.00,VWS V14.01,2013-01-25 10:03:00,
2013-01-25 03:08:00,26.8,6.8,30.07,WSW,240,8.1,8.7,42,0.00,,CLR,0.00,VWS V14.01,2013-01-25 10:08:00,
2013-01-25 03:13:00,27.9,7.8,30.07,SW,229,8.1,10.5,42,0.00,,CLR,0.00,VWS V14.01,2013-01-25 10:13:00,
2013-01-25 03:18:00,27.5,7.4,30.07,SW,234,7.2,10.5,42,0.00,,CLR,0.00,VWS V14.01,2013-01-25 10:18:00,
2013-01-25 03:23:00,27.3,7.3,30.07,WSW,247,6.7,10.5,42,0.00,,CLR,0.00,VWS V14.01,2013-01-25 10:23:00,
2013-01-25 03:28:00,26.4,6.4,30.07,West,263,7.6,10.5,42,0.00,,CLR,0.00,VWS V14.01,2013-01-25 10:28:00,
2013-01-25 03:33:00,25.0,5.7,30.07,SW,233,7.6,8.3,43,0.00,,CLR,0.00,VWS V14.01,2013-01-25 10:33:00,
2013-01-25 03:38:00,25.5,6.7,30.07,WSW,248,10.1,10.1,44,0.00,,CLR,0.00,VWS V14.01,2013-01-25 10:38:00,
2013-01-25 03:43:00,26.6,7.1,30.07,SW,221,7.6,10.1,43,0.00,,CLR,0.00,VWS V14.01,2013-01-25 10:43:00,
2013-01-25 03:48:00,28.6,8.4,30.07,SW,217,8.1,10.1,42,0.00,,CLR,0.00,VWS V14.01,2013-01-25 10:48:00,
2013-01-25 03:53:00,28.4,8.2,30.07,WSW,237,5.8,10.1,42,0.00,,CLR,0.00,VWS V14.01,2013-01-25 10:53:00,
2013-01-25 03:58:00,27.1,7.1,30.07,SW,216,5.4,10.1,42,0.00,,CLR,0.00,VWS V14.01,2013-01-25 10:58:00,
2013-01-25 04:03:00,26.8,6.8,30.07,West,266,4.9,6.3,42,0.00,,CLR,0.00,VWS V14.01,2013-01-25 11:03:00,
2013-01-25 04:08:00,26.4,6.4,30.07,WSW,253,5.4,6.3,42,0.00,,CLR,0.00,VWS V14.01,2013-01-25 11:08:00,
2013-01-25 04:13:00,27.0,6.9,30.07,SW,234,6.7,6.7,42,0.00,,CLR,0.00,VWS V14.01,2013-01-25 11:13:00,
2013-01-25 04:18:00,26.6,6.6,30.07,WSW,246,5.8,8.1,42,0.00,,CLR,0.00,VWS V14.01,2013-01-25 11:18:00,
2013-01-25 04:23:00,25.5,5.6,30.07,WSW,240,7.6,8.3,42,0.00,,CLR,0.00,VWS V14.01,2013-01-25 11:23:00,
2013-01-25 04:28:00,26.1,6.6,30.07,WSW,247,4.9,8.3,43,0.00,,CLR,0.00,VWS V14.01,2013-01-25 11:28:00,
2013-01-25 04:33:00,25.9,6.5,30.07,SSW,200,5.4,8.1,43,0.00,,CLR,0.00,VWS V14.01,2013-01-25 11:33:00,
2013-01-25 04:38:00,26.2,6.8,30.07,SSW,211,6.3,8.1,43,0.00,,CLR,0.00,VWS V14.01,2013-01-25 11:38:00,
2013-01-25 04:43:00,26.1,6.6,30.07,SSW,207,5.8,8.1,43,0.00,,CLR,0.00,VWS V14.01,2013-01-25 11:43:00,
2013-01-25 04:48:00,26.1,6.6,30.07,SSW,211,7.2,8.1,43,0.00,,CLR,0.00,VWS V14.01,2013-01-25 11:48:00,
2013-01-25 04:53:00,27.5,7.9,30.07,SW,220,9.2,10.5,43,0.00,,CLR,0.00,VWS V14.01,2013-01-25 11:53:00,
2013-01-25 04:58:00,27.5,7.4,30.07,WSW,244,5.8,10.5,42,0.00,,CLR,0.00,VWS V14.01,2013-01-25 11:58:00,
2013-01-25 05:03:00,28.0,7.9,30.07,WSW,254,3.6,5.8,42,0.00,,CLR,0.00,VWS V14.01,2013-01-25 12:03:00,
2013-01-25 05:08:00,28.0,7.9,30.07,West,261,4.9,5.8,42,0.00,,CLR,0.00,VWS V14.01,2013-01-25 12:08:00,
2013-01-25 05:13:00,27.5,7.9,30.07,WSW,250,5.4,6.7,43,0.00,,CLR,0.00,VWS V14.01,2013-01-25 12:13:00,
2013-01-25 05:18:00,27.0,7.5,30.07,WSW,237,6.3,8.1,43,0.00,,CLR,0.00,VWS V14.01,2013-01-25 12:18:00,
2013-01-25 05:23:00,26.6,8.1,30.07,WSW,241,7.6,8.1,45,0.00,,CLR,0.00,VWS V14.01,2013-01-25 12:23:00,
2013-01-25 05:28:00,26.1,8.1,30.07,SW,234,6.3,8.1,46,0.00,,CLR,0.00,VWS V14.01,2013-01-25 12:28:00,
2013-01-25 05:33:00,26.6,8.6,30.07,SW,231,6.3,6.3,46,0.00,,CLR,0.00,VWS V14.01,2013-01-25 12:33:00,
2013-01-25 05:37:00,27.9,8.8,30.07,WSW,238,6.3,8.3,44,0.00,,CLR,0.00,VWS V14.01,2013-01-25 12:37:00,
2013-01-25 05:42:00,27.9,8.8,30.07,SW,229,5.4,8.3,44,0.00,,CLR,0.00,VWS V14.01,2013-01-25 12:42:00,
2013-01-25 05:47:00,27.1,8.6,30.07,WSW,246,7.6,8.3,45,0.00,,CLR,0.00,VWS V14.01,2013-01-25 12:47:00,
2013-01-25 05:52:00,28.4,8.8,30.07,WNW,302,5.8,8.3,43,0.00,,CLR,0.00,VWS V14.01,2013-01-25 12:52:00,
2013-01-25 05:57:00,27.3,7.8,30.07,WNW,303,4.0,8.3,43,0.00,,CLR,0.00,VWS V14.01,2013-01-25 12:57:00,
2013-01-25 06:02:00,28.0,8.4,30.07,SW,236,5.4,5.8,43,0.00,,CLR,0.00,VWS V14.01,2013-01-25 13:02:00,
2013-01-25 06:07:00,26.6,7.1,30.07,WSW,248,5.4,7.2,43,0.00,,CLR,0.00,VWS V14.01,2013-01-25 13:07:00,
2013-01-25 06:12:00,28.2,8.6,30.07,West,267,6.7,8.1,43,0.00,,CLR,0.00,VWS V14.01,2013-01-25 13:12:00,
2013-01-25 06:17:00,29.8,9.6,30.07,WSW,245,5.8,8.1,42,0.00,,CLR,0.00,VWS V14.01,2013-01-25 13:17:00,
2013-01-25 06:22:00,30.0,9.7,30.07,SW,233,8.1,8.1,42,0.00,,CLR,0.00,VWS V14.01,2013-01-25 13:22:00,
2013-01-25 06:27:00,30.2,10.4,30.07,WSW,247,5.4,8.7,43,0.00,,CLR,0.00,VWS V14.01,2013-01-25 13:27:00,
2013-01-25 06:32:00,28.6,9.4,30.07,WSW,258,5.8,8.1,44,0.00,,CLR,0.00,VWS V14.01,2013-01-25 13:32:00,
2013-01-25 06:37:00,27.0,8.5,30.07,WSW,250,3.6,8.1,45,0.00,,CLR,0.00,VWS V14.01,2013-01-25 13:37:00,
2013-01-25 06:42:00,27.7,9.1,30.07,West,265,5.8,8.1,45,0.00,,CLR,0.00,VWS V14.01,2013-01-25 13:42:00,
2013-01-25 06:47:00,28.4,8.8,30.07,West,270,4.9,8.1,43,0.00,,CLR,0.00,VWS V14.01,2013-01-25 13:47:00,
2013-01-25 06:52:00,29.3,9.1,30.07,West,273,3.1,8.1,42,0.00,,CLR,0.00,VWS V14.01,2013-01-25 13:52:00,
2013-01-25 06:57:00,31.1,10.2,30.07,NW,304,2.7,8.1,41,0.00,,CLR,0.00,VWS V14.01,2013-01-25 13:57:00,
2013-01-25 07:02:00,31.3,9.8,30.07,West,263,5.4,5.4,40,0.00,,CLR,0.00,VWS V14.01,2013-01-25 14:02:00,
2013-01-25 07:07:00,32.7,11.1,30.07,WSW,257,4.0,6.7,40,0.00,,CLR,0.00,VWS V14.01,2013-01-25 14:07:00,
2013-01-25 07:12:00,29.8,9.0,30.07,WSW,244,5.8,6.7,41,0.00,,CLR,0.00,VWS V14.01,2013-01-25 14:12:00,
2013-01-25 07:17:00,29.7,8.9,30.07,SSW,212,0.0,6.7,41,0.00,,CLR,0.00,VWS V14.01,2013-01-25 14:17:00,
2013-01-25 07:22:00,28.8,8.6,30.10,SSW,198,4.9,6.7,42,0.00,,CLR,0.00,VWS V14.01,2013-01-25 14:22:00,
2013-01-25 07:27:00,30.4,9.5,30.10,West,259,3.6,8.3,41,0.00,,CLR,0.00,VWS V14.01,2013-01-25 14:27:00,
2013-01-25 07:32:00,31.8,10.8,30.10,West,275,7.6,7.6,41,0.00,,CLR,0.00,VWS V14.01,2013-01-25 14:32:00,
2013-01-25 07:37:00,31.8,10.3,30.10,NW,308,4.0,8.1,40,0.00,,CLR,0.00,VWS V14.01,2013-01-25 14:37:00,
2013-01-25 07:42:00,28.8,8.6,30.10,WSW,245,6.3,8.1,42,0.00,,CLR,0.00,VWS V14.01,2013-01-25 14:42:00,
2013-01-25 07:47:00,27.5,7.9,30.10,WSW,256,5.4,8.1,43,0.00,,CLR,0.00,VWS V14.01,2013-01-25 14:47:00,
2013-01-25 07:52:00,27.9,8.3,30.10,WSW,250,4.0,8.1,43,0.00,,CLR,0.00,VWS V14.01,2013-01-25 14:52:00,
2013-01-25 07:57:00,28.6,8.9,30.10,West,265,4.0,8.1,43,0.00,,CLR,0.00,VWS V14.01,2013-01-25 14:57:00,
2013-01-25 08:02:00,29.1,8.9,30.10,West,262,4.9,4.9,42,0.00,,CLR,0.00,VWS V14.01,2013-01-25 15:02:00,
2013-01-25 08:07:00,28.6,8.9,30.10,WSW,238,5.8,6.3,43,0.00,,CLR,0.00,VWS V14.01,2013-01-25 15:07:00,
2013-01-25 08:12:00,28.8,9.1,30.10,SW,222,5.4,7.6,43,0.00,,CLR,0.00,VWS V14.01,2013-01-25 15:12:00,
2013-01-25 08:17:00,28.8,9.6,30.10,West,271,8.3,9.2,44,0.00,,CLR,0.00,VWS V14.01,2013-01-25 15:17:00,
2013-01-25 08:22:00,28.4,9.8,30.10,WSW,250,4.0,10.1,45,0.00,,CLR,0.00,VWS V14.01,2013-01-25 15:22:00,
2013-01-25 08:27:00,27.9,8.8,30.10,West,276,2.7,10.1,44,0.00,,CLR,0.00,VWS V14.01,2013-01-25 15:27:00,
2013-01-25 08:32:00,27.9,8.8,30.10,WSW,242,3.1,4.9,44,0.00,,CLR,0.00,VWS V14.01,2013-01-25 15:32:00,
2013-01-25 08:37:00,27.9,8.8,30.10,NW,304,2.7,4.9,44,0.00,,CLR,0.00,VWS V14.01,2013-01-25 15:37:00,
2013-01-25 08:42:00,27.5,7.9,30.10,NW,304,0.0,4.9,43,0.00,,CLR,0.00,VWS V14.01,2013-01-25 15:42:00,
2013-01-25 08:47:00,27.9,8.3,30.10,NW,304,3.1,4.9,43,0.00,,CLR,0.00,VWS V14.01,2013-01-25 15:47:00,
2013-01-25 08:52:00,27.5,7.9,30.10,SW,227,5.8,5.8,43,0.00,,CLR,0.00,VWS V14.01,2013-01-25 15:52:00,
2013-01-25 08:57:00,27.9,8.8,30.10,SW,235,6.3,8.1,44,0.00,,CLR,0.00,VWS V14.01,2013-01-25 15:57:00,
2013-01-25 09:02:00,27.9,9.3,30.10,WSW,257,5.4,6.3,45,0.00,,CLR,0.00,VWS V14.01,2013-01-25 16:02:00,
2013-01-25 09:07:00,27.7,9.1,30.10,WSW,258,0.0,8.1,45,0.00,,CLR,0.00,VWS V14.01,2013-01-25 16:07:00,
2013-01-25 09:12:00,27.5,9.4,30.10,WSW,240,5.4,8.1,46,0.00,,CLR,0.00,VWS V14.01,2013-01-25 16:12:00,
2013-01-25 09:17:00,27.5,9.4,30.10,SW,219,2.2,8.1,46,0.00,,CLR,0.00,VWS V14.01,2013-01-25 16:17:00,
2013-01-25 09:22:00,27.1,9.1,30.10,SW,220,4.5,8.1,46,0.00,,CLR,0.00,VWS V14.01,2013-01-25 16:22:00,
2013-01-25 09:27:00,27.9,10.3,30.10,SW,236,5.4,8.1,47,0.00,,CLR,0.00,VWS V14.01,2013-01-25 16:27:00,
2013-01-25 09:32:00,28.2,10.1,30.10,SW,233,7.2,7.2,46,0.00,,CLR,0.00,VWS V14.01,2013-01-25 16:32:00,
2013-01-25 09:37:00,31.3,13.4,30.10,SSW,208,7.6,10.5,47,0.00,,CLR,0.00,VWS V14.01,2013-01-25 16:37:00,
2013-01-25 09:42:00,33.4,13.4,30.10,WSW,249,6.3,10.5,43,0.00,,CLR,0.00,VWS V14.01,2013-01-25 16:42:00,
2013-01-25 09:47:00,33.4,13.4,30.10,SW,217,8.1,11.0,43,0.00,,CLR,0.00,VWS V14.01,2013-01-25 16:47:00,
2013-01-25 09:52:00,35.1,15.9,30.07,SSW,211,4.9,13.6,45,0.00,,CLR,0.00,VWS V14.01,2013-01-25 16:52:00,
2013-01-25 09:57:00,36.5,16.7,30.07,WSW,239,4.5,13.6,44,0.00,,CLR,0.00,VWS V14.01,2013-01-25 16:57:00,
2013-01-25 10:02:00,36.7,16.3,30.07,SSW,199,6.3,6.3,43,0.00,,CLR,0.00,VWS V14.01,2013-01-25 17:02:00,
2013-01-25 10:07:00,38.1,16.5,30.10,SSW,194,5.8,6.3,41,0.00,,CLR,0.00,VWS V14.01,2013-01-25 17:07:00,
2013-01-25 10:12:00,38.5,16.8,30.10,SW,220,8.1,13.2,41,0.00,,CLR,0.00,VWS V14.01,2013-01-25 17:12:00,
2013-01-25 10:17:00,39.7,17.4,30.10,SSW,192,7.6,13.2,40,0.00,,CLR,0.00,VWS V14.01,2013-01-25 17:17:00,
2013-01-25 10:22:00,41.7,18.6,30.10,South,171,11.0,13.2,39,0.00,,CLR,0.00,VWS V14.01,2013-01-25 17:22:00,
2013-01-25 10:27:00,42.1,18.9,30.10,SSW,208,10.1,15.4,39,0.00,,CLR,0.00,VWS V14.01,2013-01-25 17:27:00,
2013-01-25 10:32:00,42.8,19.0,30.10,SSE,158,10.5,11.4,38,0.00,,CLR,0.00,VWS V14.01,2013-01-25 17:32:00,
2013-01-25 10:37:00,43.3,19.5,30.10,SSE,158,8.3,13.6,38,0.00,,CLR,0.00,VWS V14.01,2013-01-25 17:37:00,
2013-01-25 10:42:00,44.4,19.1,30.10,South,172,10.5,13.6,36,0.00,,CLR,0.00,VWS V14.01,2013-01-25 17:42:00,
2013-01-25 10:47:00,43.3,19.5,30.10,South,188,6.3,13.6,38,0.00,,CLR,0.00,VWS V14.01,2013-01-25 17:47:00,
2013-01-25 10:52:00,42.4,18.6,30.10,SSW,206,10.1,13.6,38,0.00,,CLR,0.00,VWS V14.01,2013-01-25 17:52:00,
2013-01-25 10:57:00,43.2,19.3,30.10,SSW,196,8.7,13.6,38,0.00,,CLR,0.00,VWS V14.01,2013-01-25 17:57:00,
2013-01-25 11:02:00,43.5,19.6,30.10,SSW,199,10.1,10.1,38,0.00,,CLR,0.00,VWS V14.01,2013-01-25 18:02:00,
2013-01-25 11:07:00,43.2,19.3,30.07,SW,215,8.7,12.3,38,0.00,,CLR,0.00,VWS V14.01,2013-01-25 18:07:00,
2013-01-25 11:12:00,43.7,19.8,30.07,SSW,211,8.3,13.2,38,0.00,,CLR,0.00,VWS V14.01,2013-01-25 18:12:00,
2013-01-25 11:17:00,44.2,20.3,30.07,South,169,5.8,14.1,38,0.00,,CLR,0.00,VWS V14.01,2013-01-25 18:17:00,
2013-01-25 11:22:00,45.9,21.1,30.07,South,187,6.3,14.1,37,0.00,,CLR,0.00,VWS V14.01,2013-01-25 18:22:00,
2013-01-25 11:27:00,46.9,21.4,30.07,SSE,158,6.3,14.1,36,0.00,,CLR,0.00,VWS V14.01,2013-01-25 18:27:00,
2013-01-25 11:32:00,46.2,20.8,30.07,SE,124,7.6,10.5,36,0.00,,CLR,0.00,VWS V14.01,2013-01-25 18:32:00,
2013-01-25 11:37:00,44.2,18.3,30.07,SE,145,6.3,11.9,35,0.00,,CLR,0.00,VWS V14.01,2013-01-25 18:37:00,
2013-01-25 11:42:00,43.3,17.5,30.07,ESE,111,4.0,11.9,35,0.00,,CLR,0.00,VWS V14.01,2013-01-25 18:42:00,
2013-01-25 11:47:00,43.3,18.2,30.07,ESE,120,5.8,11.9,36,0.00,,CLR,0.00,VWS V14.01,2013-01-25 18:47:00,
2013-01-25 11:52:00,43.0,17.9,30.07,ESE,104,7.6,11.9,36,0.00,,CLR,0.00,VWS V14.01,2013-01-25 18:52:00,
2013-01-25 11:57:00,42.8,18.4,30.07,ESE,118,7.6,11.9,37,0.00,,CLR,0.00,VWS V14.01,2013-01-25 18:57:00,
2013-01-25 12:02:00,42.4,18.6,30.07,SE,136,8.7,8.7,38,0.00,,CLR,0.00,VWS V14.01,2013-01-25 19:02:00,
2013-01-25 12:07:00,41.9,17.5,30.07,SSE,152,4.0,8.7,37,0.00,,CLR,0.00,VWS V14.01,2013-01-25 19:07:00,
2013-01-25 12:12:00,42.8,18.4,30.07,East,82,3.6,8.7,37,0.00,,CLR,0.00,VWS V14.01,2013-01-25 19:12:00,
2013-01-25 12:17:00,43.5,19.0,30.07,ESE,115,4.0,8.7,37,0.00,,CLR,0.00,VWS V14.01,2013-01-25 19:17:00,
2013-01-25 12:22:00,44.4,20.4,30.07,SSE,157,5.8,10.1,38,0.00,,CLR,0.00,VWS V14.01,2013-01-25 19:22:00,
2013-01-25 12:27:00,45.3,20.6,30.07,SSE,150,5.8,13.2,37,0.00,,CLR,0.00,VWS V14.01,2013-01-25 19:27:00,
2013-01-25 12:32:00,46.2,21.4,30.07,South,174,12.3,12.3,37,0.00,,CLR,0.00,VWS V14.01,2013-01-25 19:32:00,
2013-01-25 12:37:00,45.7,20.9,30.04,South,171,11.0,13.2,37,0.00,,CLR,0.00,VWS V14.01,2013-01-25 19:37:00,
2013-01-25 12:42:00,45.5,20.8,30.04,SSE,151,8.3,14.1,37,0.00,,CLR,0.00,VWS V14.01,2013-01-25 19:42:00,
2013-01-25 12:47:00,42.4,18.6,30.04,ESE,111,7.6,14.1,38,0.00,,CLR,0.00,VWS V14.01,2013-01-25 19:47:00,
2013-01-25 12:52:00,42.4,19.2,30.04,SE,146,6.3,14.1,39,0.00,,CLR,0.00,VWS V14.01,2013-01-25 19:52:00,
2013-01-25 12:57:00,44.8,20.7,30.04,SE,138,8.3,15.0,38,0.00,,CLR,0.00,VWS V14.01,2013-01-25 19:57:00,
2013-01-25 13:02:00,46.2,21.4,30.04,SSE,161,10.1,13.2,37,0.00,,CLR,0.00,VWS V14.01,2013-01-25 20:02:00,
2013-01-25 13:07:00,45.9,21.1,30.04,SSE,165,8.1,15.4,37,0.00,,CLR,0.00,VWS V14.01,2013-01-25 20:07:00,
2013-01-25 13:12:00,45.9,21.1,30.04,South,186,11.9,17.0,37,0.00,,CLR,0.00,VWS V14.01,2013-01-25 20:12:00,
2013-01-25 13:17:00,46.0,21.2,30.04,South,179,10.5,17.0,37,0.00,,CLR,0.00,VWS V14.01,2013-01-25 20:17:00,
2013-01-25 13:22:00,45.5,20.8,30.04,South,173,12.8,17.0,37,0.00,,CLR,0.00,VWS V14.01,2013-01-25 20:22:00,
2013-01-25 13:27:00,45.3,20.6,30.04,SSW,200,10.5,17.0,37,0.00,,CLR,0.00,VWS V14.01,2013-01-25 20:27:00,
2013-01-25 13:32:00,45.1,20.4,30.04,South,185,11.0,13.2,37,0.00,,CLR,0.00,VWS V14.01,2013-01-25 20:32:00,
2013-01-25 13:37:00,45.1,20.4,30.04,South,186,5.4,14.1,37,0.00,,CLR,0.00,VWS V14.01,2013-01-25 20:37:00,
2013-01-25 13:42:00,44.8,20.1,30.04,SSW,205,13.2,14.1,37,0.00,,CLR,0.00,VWS V14.01,2013-01-25 20:42:00,
2013-01-25 13:47:00,44.2,20.3,30.04,South,183,14.5,20.1,38,0.00,,CLR,0.00,VWS V14.01,2013-01-25 20:47:00,
2013-01-25 13:52:00,44.2,20.3,30.04,South,169,6.3,20.1,38,0.00,,CLR,0.00,VWS V14.01,2013-01-25 20:52:00,
2013-01-25 13:57:00,44.2,20.3,30.04,SSW,197,13.2,20.1,38,0.00,,CLR,0.00,VWS V14.01,2013-01-25 20:57:00,
2013-01-25 14:02:00,44.1,20.1,30.04,SSW,200,13.2,17.4,38,0.00,,CLR,0.00,VWS V14.01,2013-01-25 21:02:00,
2013-01-25 14:07:00,43.7,19.8,30.04,SSW,205,12.3,18.3,38,0.00,,CLR,0.00,VWS V14.01,2013-01-25 21:07:00,
2013-01-25 14:12:00,43.7,19.8,30.04,SSW,199,15.4,18.3,38,0.00,,CLR,0.00,VWS V14.01,2013-01-25 21:12:00,
2013-01-25 14:17:00,44.1,20.1,30.04,South,173,12.8,18.3,38,0.00,,CLR,0.00,VWS V14.01,2013-01-25 21:17:00,
2013-01-25 14:22:00,43.7,19.8,30.04,South,178,15.4,19.7,38,0.00,,CLR,0.00,VWS V14.01,2013-01-25 21:22:00,
2013-01-25 14:27:00,44.4,20.4,30.04,South,191,10.1,19.7,38,0.00,,CLR,0.00,VWS V14.01,2013-01-25 21:27:00,
2013-01-25 14:32:00,44.2,20.3,30.04,South,180,11.0,15.4,38,0.00,,CLR,0.00,VWS V14.01,2013-01-25 21:32:00,
2013-01-25 14:37:00,44.2,20.3,30.04,SSW,205,6.3,15.4,38,0.00,,CLR,0.00,VWS V14.01,2013-01-25 21:37:00,
2013-01-25 14:42:00,44.2,20.3,30.04,South,185,13.6,15.4,38,0.00,,CLR,0.00,VWS V14.01,2013-01-25 21:42:00,
2013-01-25 14:47:00,44.6,20.0,30.04,South,180,5.8,15.4,37,0.00,,CLR,0.00,VWS V14.01,2013-01-25 21:47:00,
2013-01-25 14:52:00,44.2,20.3,30.04,SSW,195,11.4,15.4,38,0.00,,CLR,0.00,VWS V14.01,2013-01-25 21:52:00,
2013-01-25 14:57:00,44.2,20.3,30.04,SSW,199,9.2,16.8,38,0.00,,CLR,0.00,VWS V14.01,2013-01-25 21:57:00,
2013-01-25 15:02:00,44.2,20.3,30.04,SSW,200,13.2,15.0,38,0.00,,CLR,0.00,VWS V14.01,2013-01-25 22:02:00,
2013-01-25 15:07:00,44.4,20.4,30.04,SSW,195,12.8,15.0,38,0.00,,CLR,0.00,VWS V14.01,2013-01-25 22:07:00,
2013-01-25 15:12:00,44.6,20.6,30.04,SSW,209,10.5,18.3,38,0.00,,CLR,0.00,VWS V14.01,2013-01-25 22:12:00,
2013-01-25 15:17:00,45.0,20.3,30.04,SSW,199,8.7,19.7,37,0.00,,CLR,0.00,VWS V14.01,2013-01-25 22:17:00,
2013-01-25 15:22:00,44.6,20.6,30.04,SSE,168,10.5,19.7,38,0.00,,CLR,0.00,VWS V14.01,2013-01-25 22:22:00,
2013-01-25 15:27:00,44.4,20.4,30.04,South,189,15.4,19.7,38,0.00,,CLR,0.00,VWS V14.01,2013-01-25 22:27:00,
2013-01-25 15:32:00,44.2,20.3,30.04,SSW,196,11.0,12.8,38,0.00,,CLR,0.00,VWS V14.01,2013-01-25 22:32:00,
2013-01-25 15:37:00,44.2,20.3,30.04,South,189,17.4,17.4,38,0.00,,CLR,0.00,VWS V14.01,2013-01-25 22:37:00,
2013-01-25 15:42:00,44.1,20.1,30.04,South,177,13.2,19.2,38,0.00,,CLR,0.00,VWS V14.01,2013-01-25 22:42:00,
2013-01-25 15:47:00,44.2,20.3,30.04,South,190,12.8,19.7,38,0.00,,CLR,0.00,VWS V14.01,2013-01-25 22:47:00,
2013-01-25 15:52:00,44.2,20.3,30.04,SSE,164,15.4,19.7,38,0.00,,CLR,0.00,VWS V14.01,2013-01-25 22:52:00,
2013-01-25 15:57:00,44.4,20.4,30.04,South,174,15.4,23.3,38,0.00,,CLR,0.00,VWS V14.01,2013-01-25 22:57:00,
2013-01-25 16:02:00,44.1,20.1,30.04,SSE,168,10.1,11.9,38,0.00,,CLR,0.00,VWS V14.01,2013-01-25 23:02:00,
2013-01-25 16:07:00,43.7,19.8,30.04,SW,217,10.1,13.6,38,0.00,,CLR,0.00,VWS V14.01,2013-01-25 23:07:00,
2013-01-25 16:12:00,44.8,20.7,30.04,SSW,196,0.0,13.6,38,0.00,,CLR,0.00,VWS V14.01,2013-01-25 23:12:00,
2013-01-25 16:17:00,47.3,22.4,30.04,WSW,253,6.3,13.6,37,0.00,,CLR,0.00,VWS V14.01,2013-01-25 23:17:00,
2013-01-25 16:22:00,49.1,22.6,30.04,NE,55,4.9,13.6,35,0.00,,CLR,0.00,VWS V14.01,2013-01-25 23:22:00,
2013-01-25 16:27:00,49.5,23.0,30.04,WNW,297,5.4,13.6,35,0.00,,CLR,0.00,VWS V14.01,2013-01-25 23:27:00,
2013-01-25 16:32:00,46.8,19.9,30.04,South,180,8.1,8.7,34,0.00,,CLR,0.00,VWS V14.01,2013-01-25 23:32:00,
2013-01-25 16:37:00,45.3,20.6,30.04,SSW,202,7.6,8.7,37,0.00,,CLR,0.00,VWS V14.01,2013-01-25 23:37:00,
2013-01-25 16:42:00,44.1,20.1,30.04,South,171,7.6,15.0,38,0.00,,CLR,0.00,VWS V14.01,2013-01-25 23:42:00,
2013-01-25 16:47:00,43.5,19.6,30.04,South,187,8.3,15.0,38,0.00,,CLR,0.00,VWS V14.01,2013-01-25 23:47:00,
2013-01-25 16:52:00,43.0,19.1,30.04,South,174,13.2,19.7,38,0.00,,CLR,0.00,VWS V14.01,2013-01-25 23:52:00,
2013-01-25 16:57:00,43.0,19.1,30.04,South,187,13.2,19.7,38,0.00,,CLR,0.00,VWS V14.01,2013-01-25 23:57:00,
2013-01-25 17:02:00,42.8,19.0,30.04,SSW,193,12.3,18.8,38,0.00,,CLR,0.00,VWS V14.01,2013-01-26 00:02:00,
2013-01-25 17:07:00,42.6,19.4,30.01,SSW,196,11.0,18.8,39,0.00,,CLR,0.00,VWS V14.01,2013-01-26 00:07:00,
2013-01-25 17:12:00,42.3,19.1,30.01,South,187,13.2,18.8,39,0.00,,CLR,0.00,VWS V14.01,2013-01-26 00:12:00,
2013-01-25 17:17:00,42.3,19.1,30.01,South,175,11.4,18.8,39,0.00,,CLR,0.00,VWS V14.01,2013-01-26 00:17:00,
2013-01-25 17:22:00,42.1,18.9,30.04,SSW,196,15.4,18.8,39,0.00,,CLR,0.00,VWS V14.01,2013-01-26 00:22:00,
2013-01-25 17:27:00,41.0,18.5,30.04,SW,230,11.4,18.8,40,0.00,,CLR,0.00,VWS V14.01,2013-01-26 00:27:00,
2013-01-25 17:32:00,41.5,19.0,30.04,SSW,198,14.5,15.0,40,0.00,,CLR,0.00,VWS V14.01,2013-01-26 00:32:00,
2013-01-25 17:37:00,40.3,18.5,30.01,SSW,209,4.9,15.0,41,0.00,,CLR,0.00,VWS V14.01,2013-01-26 00:37:00,
2013-01-25 17:42:00,39.7,18.0,30.01,SSW,213,2.2,15.0,41,0.00,,CLR,0.00,VWS V14.01,2013-01-26 00:42:00,
2013-01-25 17:47:00,40.6,18.2,30.01,SSE,151,2.7,15.0,40,0.00,,CLR,0.00,VWS V14.01,2013-01-26 00:47:00,
2013-01-25 17:52:00,41.5,19.0,30.01,SSW,193,8.7,15.0,40,0.00,,CLR,0.00,VWS V14.01,2013-01-26 00:52:00,
2013-01-25 17:57:00,41.4,18.9,30.01,SSW,198,4.9,15.0,40,0.00,,CLR,0.00,VWS V14.01,2013-01-26 00:57:00,
2013-01-25 18:02:00,40.5,18.6,30.01,SW,222,2.7,8.1,41,0.00,,BKN110,0.00,VWS V14.01,2013-01-26 01:02:00,
2013-01-25 18:07:00,41.4,18.9,30.01,SSW,200,7.6,13.6,40,0.00,,BKN110,0.00,VWS V14.01,2013-01-26 01:07:00,
2013-01-25 18:12:00,41.0,18.5,30.01,South,182,10.1,13.6,40,0.00,,BKN110,0.00,VWS V14.01,2013-01-26 01:12:00,
2013-01-25 18:17:00,41.0,18.5,30.01,South,191,9.6,15.4,40,0.00,,BKN110,0.00,VWS V14.01,2013-01-26 01:17:00,
2013-01-25 18:22:00,41.9,18.8,30.01,SSW,204,3.6,15.4,39,0.00,,BKN110,0.00,VWS V14.01,2013-01-26 01:22:00,
2013-01-25 18:27:00,41.0,18.5,30.01,SSW,197,10.5,15.4,40,0.00,,BKN110,0.00,VWS V14.01,2013-01-26 01:27:00,
2013-01-25 18:32:00,41.2,18.7,30.01,SSW,200,10.1,13.6,40,0.00,,BKN110,0.00,VWS V14.01,2013-01-26 01:32:00,
2013-01-25 18:37:00,41.0,18.5,30.01,South,190,11.4,16.3,40,0.00,,BKN110,0.00,VWS V14.01,2013-01-26 01:37:00,
2013-01-25 18:42:00,40.8,19.0,30.01,SW,215,10.5,16.3,41,0.00,,BKN110,0.00,VWS V14.01,2013-01-26 01:42:00,
2013-01-25 18:47:00,41.2,18.7,30.01,South,180,11.0,16.3,40,0.00,,BKN110,0.00,VWS V14.01,2013-01-26 01:47:00,
2013-01-25 18:52:00,41.2,18.7,30.01,South,175,12.3,16.3,40,0.00,,BKN110,0.00,VWS V14.01,2013-01-26 01:52:00,
2013-01-25 18:57:00,41.4,18.9,30.01,South,191,8.7,16.3,40,0.00,,BKN110,0.00,VWS V14.01,2013-01-26 01:57:00,
2013-01-25 19:02:00,41.4,18.9,30.01,South,177,10.5,13.2,40,0.00,,BKN110,0.00,VWS V14.01,2013-01-26 02:02:00,
2013-01-25 19:07:00,41.2,18.7,30.01,SSW,192,7.6,16.3,40,0.00,,OVC100,0.00,VWS V14.01,2013-01-26 02:07:00,
2013-01-25 19:12:00,41.2,18.7,30.01,South,188,11.0,16.3,40,0.00,,OVC100,0.00,VWS V14.01,2013-01-26 02:12:00,
2013-01-25 19:17:00,41.2,18.7,30.01,SSW,207,11.0,16.3,40,0.00,,OVC100,0.00,VWS V14.01,2013-01-26 02:17:00,
2013-01-25 19:22:00,41.0,18.5,30.01,SSW,204,7.6,16.3,40,0.00,,OVC100,0.00,VWS V14.01,2013-01-26 02:22:00,
2013-01-25 19:27:00,41.2,18.1,30.01,South,182,15.0,16.3,39,0.00,,OVC100,0.00,VWS V14.01,2013-01-26 02:27:00,
2013-01-25 19:32:00,41.0,18.5,30.01,SSW,203,10.1,10.1,40,0.00,,OVC100,0.00,VWS V14.01,2013-01-26 02:32:00,
2013-01-25 19:37:00,40.8,18.4,30.01,SSW,198,10.5,11.0,40,0.00,,OVC100,0.00,VWS V14.01,2013-01-26 02:37:00,
2013-01-25 19:42:00,40.3,17.9,30.01,South,186,5.4,11.0,40,0.00,,OVC100,0.00,VWS V14.01,2013-01-26 02:42:00,
2013-01-25 19:47:00,40.5,18.1,30.01,WSW,239,3.6,11.0,40,0.00,,OVC100,0.00,VWS V14.01,2013-01-26 02:47:00,
2013-01-25 19:52:00,39.6,17.2,30.01,North,7,3.1,11.0,40,0.00,,OVC100,0.00,VWS V14.01,2013-01-26 02:52:00,
2013-01-25 19:57:00,38.7,17.6,30.01,NE,43,4.0,11.0,42,0.00,,OVC100,0.00,VWS V14.01,2013-01-26 02:57:00,
2013-01-25 20:02:00,38.5,17.4,30.01,East,99,2.2,3.6,42,0.00,,OVC100,0.00,VWS V14.01,2013-01-26 03:02:00,
2013-01-25 20:07:00,39.6,17.8,30.01,SSE,161,8.1,10.1,41,0.00,,OVC100,0.00,VWS V14.01,2013-01-26 03:07:00,
2013-01-25 20:12:00,39.7,18.0,30.01,SW,228,0.0,10.1,41,0.00,,OVC100,0.00,VWS V14.01,2013-01-26 03:12:00,
2013-01-25 20:17:00,40.6,18.8,30.01,SE,133,3.1,10.1,41,0.00,,OVC100,0.00,VWS V14.01,2013-01-26 03:17:00,
2013-01-25 20:22:00,39.4,17.7,30.01,SSW,206,2.7,10.1,41,0.00,,OVC100,0.00,VWS V14.01,2013-01-26 03:22:00,
2013-01-25 20:27:00,39.4,18.2,30.01,SSW,197,5.4,10.1,42,0.00,,OVC100,0.00,VWS V14.01,2013-01-26 03:27:00,
2013-01-25 20:32:00,39.9,19.2,30.01,SSW,197,10.5,13.6,43,0.00,,OVC100,0.00,VWS V14.01,2013-01-26 03:32:00,
2013-01-25 20:37:00,40.8,19.5,29.98,SSW,197,14.1,14.1,42,0.00,,OVC100,0.00,VWS V14.01,2013-01-26 03:37:00,
2013-01-25 20:42:00,40.5,19.2,29.98,SSW,210,12.8,15.9,42,0.00,,OVC100,0.00,VWS V14.01,2013-01-26 03:42:00,
2013-01-25 20:47:00,40.1,18.9,29.98,SW,215,11.9,15.9,42,0.00,,OVC100,0.00,VWS V14.01,2013-01-26 03:47:00,
2013-01-25 20:52:00,40.1,18.9,29.98,SSW,212,17.9,17.9,42,0.00,,OVC100,0.00,VWS V14.01,2013-01-26 03:52:00,
2013-01-25 20:57:00,40.5,19.2,29.98,SSW,209,13.6,17.9,42,0.00,,OVC100,0.00,VWS V14.01,2013-01-26 03:57:00,
2013-01-25 21:02:00,40.5,19.2,29.98,South,190,15.4,15.4,42,0.00,,OVC100,0.00,VWS V14.01,2013-01-26 04:02:00,
2013-01-25 21:07:00,41.0,19.1,29.98,SSW,213,12.8,21.0,41,0.00,,FEW110,0.00,VWS V14.01,2013-01-26 04:07:00,
2013-01-25 21:12:00,41.2,19.3,29.98,SSW,202,17.4,21.0,41,0.00,,FEW110,0.00,VWS V14.01,2013-01-26 04:12:00,
2013-01-25 21:17:00,40.5,19.2,29.98,South,186,16.3,21.0,42,0.00,,FEW110,0.00,VWS V14.01,2013-01-26 04:17:00,
2013-01-25 21:22:00,41.2,18.7,29.98,SW,216,12.8,21.0,40,0.00,,FEW110,0.00,VWS V14.01,2013-01-26 04:22:00,
2013-01-25 21:27:00,40.8,19.0,29.98,SW,214,12.3,21.0,41,0.00,,FEW110,0.00,VWS V14.01,2013-01-26 04:27:00,
2013-01-25 21:32:00,41.5,19.0,29.98,SSW,212,10.5,23.3,40,0.00,,FEW110,0.00,VWS V14.01,2013-01-26 04:32:00,
2013-01-25 21:37:00,41.4,18.9,29.98,SW,218,19.7,23.3,40,0.00,,FEW110,0.00,VWS V14.01,2013-01-26 04:37:00,
2013-01-25 21:42:00,41.5,19.0,29.98,SSW,204,12.3,23.3,40,0.00,,FEW110,0.00,VWS V14.01,2013-01-26 04:42:00,
2013-01-25 21:47:00,41.5,19.0,29.98,SW,229,14.1,23.3,40,0.00,,FEW110,0.00,VWS V14.01,2013-01-26 04:47:00,
2013-01-25 21:52:00,41.2,18.7,29.98,SW,214,15.0,23.3,40,0.00,,FEW110,0.00,VWS V14.01,2013-01-26 04:52:00,
2013-01-25 21:57:00,41.2,18.7,29.98,SSW,203,13.6,23.3,40,0.00,,FEW110,0.00,VWS V14.01,2013-01-26 04:57:00,
2013-01-25 22:00:00,41.0,18.5,29.98,SSW,201,15.0,23.3,40,0.00,,FEW110,0.00,VWS V14.01,2013-01-26 05:00:00,
2013-01-25 22:01:00,40.6,18.8,29.98,SSW,209,15.0,17.4,41,0.00,,FEW110,0.00,VWS V14.01,2013-01-26 05:01:00,
2013-01-25 22:06:00,40.5,18.6,29.98,SW,217,15.4,23.7,41,0.00,,CLR,0.00,VWS V14.01,2013-01-26 05:06:00,
2013-01-25 22:11:00,40.6,18.8,29.98,SSW,207,19.2,23.7,41,0.00,,CLR,0.00,VWS V14.01,2013-01-26 05:11:00,
2013-01-25 22:16:00,40.8,19.0,29.98,SW,218,16.3,23.7,41,0.00,,CLR,0.00,VWS V14.01,2013-01-26 05:16:00,
2013-01-25 22:21:00,40.5,18.6,29.98,SSW,198,17.9,23.7,41,0.00,,CLR,0.00,VWS V14.01,2013-01-26 05:21:00,
2013-01-25 22:26:00,41.2,18.7,29.98,SW,234,17.9,23.7,40,0.00,,CLR,0.00,VWS V14.01,2013-01-26 05:26:00,
2013-01-25 22:31:00,40.6,18.8,29.98,SSW,210,17.0,17.0,41,0.00,,CLR,0.00,VWS V14.01,2013-01-26 05:31:00,
2013-01-25 22:36:00,40.6,18.8,29.98,SW,222,10.1,17.9,41,0.00,,CLR,0.00,VWS V14.01,2013-01-26 05:36:00,
2013-01-25 22:41:00,41.9,19.4,29.98,SSW,194,15.9,22.4,40,0.00,,CLR,0.00,VWS V14.01,2013-01-26 05:41:00,
2013-01-25 22:46:00,41.7,19.2,29.98,SW,226,10.5,22.4,40,0.00,,CLR,0.00,VWS V14.01,2013-01-26 05:46:00,
2013-01-25 22:51:00,42.1,19.5,29.95,SW,229,7.6,22.4,40,0.00,,CLR,0.00,VWS V14.01,2013-01-26 05:51:00,
2013-01-25 22:56:00,41.5,19.0,29.95,WSW,243,15.4,22.4,40,0.00,,CLR,0.00,VWS V14.01,2013-01-26 05:56:00,
2013-01-25 23:01:00,41.4,18.9,29.95,WSW,245,15.0,15.0,40,0.00,,CLR,0.00,VWS V14.01,2013-01-26 06:01:00,
2013-01-25 23:06:00,41.5,19.0,29.95,SW,224,13.2,15.4,40,0.00,,CLR,0.00,VWS V14.01,2013-01-26 06:06:00,
2013-01-25 23:11:00,40.8,19.0,29.95,South,189,15.4,17.4,41,0.00,,CLR,0.00,VWS V14.01,2013-01-26 06:11:00,
2013-01-25 23:16:00,40.5,18.6,29.95,South,190,10.5,17.4,41,0.00,,CLR,0.00,VWS V14.01,2013-01-26 06:16:00,
2013-01-25 23:21:00,40.1,18.3,29.98,SW,222,8.1,17.4,41,0.00,,CLR,0.00,VWS V14.01,2013-01-26 06:21:00,
2013-01-25 23:26:00,41.0,18.5,29.98,SW,223,11.0,17.4,40,0.00,,CLR,0.00,VWS V14.01,2013-01-26 06:26:00,
2013-01-25 23:31:00,41.0,19.1,29.98,SW,235,8.1,10.1,41,0.00,,CLR,0.00,VWS V14.01,2013-01-26 06:31:00,
2013-01-25 23:36:00,41.7,19.2,29.98,SSW,198,11.0,15.0,40,0.00,,CLR,0.00,VWS V14.01,2013-01-26 06:36:00,
2013-01-25 23:41:00,41.7,19.2,29.98,SW,217,6.3,15.9,40,0.00,,CLR,0.00,VWS V14.01,2013-01-26 06:41:00,
2013-01-25 23:46:00,41.2,18.7,29.98,SW,234,8.7,15.9,40,0.00,,CLR,0.00,VWS V14.01,2013-01-26 06:46:00,
2013-01-25 23:51:00,41.0,18.5,29.98,West,269,7.6,15.9,40,0.00,,CLR,0.00,VWS V14.01,2013-01-26 06:51:00,
2013-01-25 23:56:00,41.4,18.9,29.98,WSW,256,8.3,15.9,40,0.00,,CLR,0.00,VWS V14.01,2013-01-26 06:56:00,